Fort Loudoun Lake Weather Center

Moon Phase Calendar



Fort Loudoun Lake Water Level
Online Cameras

 


      

Current Conditions in Louisville
4/23/2024 4:42:47 AM

40°F
Feels Like 40
Mist
Humidity
86%
Pressure
30.15"
Wind
0
Dew Point
36°F
UV Index
0/10 (Low)
Visibility
6 mi

Hourly Forecast

Date & Time Tue, Apr 23
4:00 AM
Tue, Apr 23
5:00 AM
Tue, Apr 23
6:00 AM
Tue, Apr 23
7:00 AM
Tue, Apr 23
8:00 AM
Tue, Apr 23
9:00 AM
Tue, Apr 23
10:00 AM
Tue, Apr 23
11:00 AM
Tue, Apr 23
12:00 PM
Tue, Apr 23
1:00 PM
Tue, Apr 23
2:00 PM
Tue, Apr 23
3:00 PM
Tue, Apr 23
4:00 PM
Tue, Apr 23
5:00 PM
Tue, Apr 23
6:00 PM
Tue, Apr 23
7:00 PM
Tue, Apr 23
8:00 PM
Tue, Apr 23
9:00 PM
Tue, Apr 23
10:00 PM
Tue, Apr 23
11:00 PM
Wed, Apr 24
12:00 AM
Wed, Apr 24
1:00 AM
Wed, Apr 24
2:00 AM
Wed, Apr 24
3:00 AM
Wed, Apr 24
4:00 AM
Wed, Apr 24
5:00 AM
Wed, Apr 24
6:00 AM
Wed, Apr 24
7:00 AM
Wed, Apr 24
8:00 AM
Wed, Apr 24
9:00 AM
Wed, Apr 24
10:00 AM
Wed, Apr 24
11:00 AM
Wed, Apr 24
12:00 PM
Wed, Apr 24
1:00 PM
Wed, Apr 24
2:00 PM
Wed, Apr 24
3:00 PM
Wed, Apr 24
4:00 PM
Wed, Apr 24
5:00 PM
Wed, Apr 24
6:00 PM
Wed, Apr 24
7:00 PM
Wed, Apr 24
8:00 PM
Wed, Apr 24
9:00 PM
Wed, Apr 24
10:00 PM
Wed, Apr 24
11:00 PM
Thu, Apr 25
12:00 AM
Thu, Apr 25
1:00 AM
Thu, Apr 25
2:00 AM
Thu, Apr 25
3:00 AM
Condition
Clouds

Clouds

Clouds

Clouds

Clouds

Clear

Clear

Clouds

Clouds

Clouds

Clouds

Clouds

Clouds

Clouds

Clouds

Clouds

Clouds

Clouds

Clouds

Clouds

Clouds

Clouds

Clouds

Clouds

Clouds

Clouds

Clouds

Rain

Rain

Clouds

Clouds

Clouds

Clouds

Clouds

Clouds

Clouds

Clouds

Clouds

Clouds

Clouds

Clouds

Clear

Clear

Clear

Clear

Clear

Clear

Clear
Temperature 40°F40°F40°F40°F42°F47°F54°F58°F63°F66°F68°F69°F69°F69°F68°F65°F62°F59°F58°F56°F54°F55°F55°F55°F53°F54°F54°F52°F51°F53°F56°F59°F64°F67°F70°F71°F72°F72°F70°F67°F60°F57°F54°F53°F52°F50°F49°F48°F
Feels Like 40°F40°F40°F40°F40°F45°F51°F56°F60°F64°F66°F67°F67°F68°F66°F64°F60°F57°F56°F54°F53°F53°F53°F53°F52°F52°F52°F51°F50°F52°F55°F58°F63°F66°F68°F70°F71°F70°F69°F65°F59°F55°F53°F51°F50°F49°F47°F46°F
Cloudiness 27%20%31%42%49%9%7%37%29%25%30%89%84%76%61%62%57%19%54%46%37%36%32%59%75%84%88%90%92%89%94%90%90%84%78%65%44%58%62%65%57%7%8%6%4%3%3%1%
Visibility 6 mi6 mi6 mi6 mi6 mi6 mi6 mi6 mi6 mi6 mi6 mi6 mi6 mi6 mi6 mi6 mi6 mi6 mi6 mi6 mi6 mi6 mi6 mi6 mi6 mi6 mi6 mi6 mi6 mi6 mi6 mi6 mi6 mi6 mi6 mi6 mi6 mi6 mi6 mi6 mi6 mi6 mi6 mi6 mi6 mi6 mi6 mi6 mi
Precipitation 0%0%0%0%0%0%0%0%0%0%0%0%0%0%0%0%0%0%0%0%0%0%0%0%0%0%0%20%100%0%18%10%0%0%0%0%0%0%0%0%0%0%0%0%0%0%0%0%
Humidity 81%86%81%78%71%58%46%43%39%34%32%33%34%37%40%43%48%55%58%63%65%67%67%68%72%71%71%81%92%89%83%75%62%51%46%40%35%36%42%50%60%65%68%71%75%79%83%86%
Dew Point 35°F36°F34°F33°F33°F33°F33°F36°F38°F36°F37°F38°F40°F42°F43°F42°F42°F43°F43°F43°F43°F44°F44°F44°F44°F45°F44°F46°F48°F49°F51°F51°F51°F49°F47°F45°F43°F43°F46°F47°F47°F45°F44°F44°F44°F44°F44°F44°F
Pressure 30.15"30.15"30.15"30.18"30.21"30.21"30.21"30.18"30.18"30.12"30.09"30.09"30.06"30.03"30.03"30.03"30.03"30.06"30.09"30.09"30.06"30.06"30.06"30.03"30.06"30.06"30.09"30.09"30.12"30.12"30.12"30.15"30.12"30.12"30.09"30.06"30.06"30.03"30.06"30.09"30.12"30.15"30.18"30.18"30.21"30.21"30.21"30.21"
Wind Speed 2 mph2.7 mph2.8 mph2.9 mph3.5 mph4.6 mph5.8 mph7.7 mph10 mph12 mph13.5 mph14.6 mph14.5 mph13.4 mph12.9 mph12.8 mph11.6 mph10.1 mph9.8 mph9.2 mph9.6 mph9.9 mph9.9 mph9.4 mph8.1 mph7.9 mph7.8 mph7 mph6 mph5 mph6 mph3.7 mph3.4 mph3.5 mph3.8 mph4.4 mph5.4 mph8.1 mph8.7 mph7.7 mph6.5 mph5.5 mph3.3 mph3.9 mph4.4 mph5.2 mph5.8 mph5.5 mph
Wind
Direction
212°
SSW
207°
SSW
218°
SW
218°
SW
218°
SW
227°
SW
237°
WSW
237°
WSW
238°
WSW
237°
WSW
238°
WSW
242°
WSW
238°
WSW
236°
SW
227°
SW
224°
SW
222°
SW
222°
SW
226°
SW
218°
SW
220°
SW
222°
SW
223°
SW
226°
SW
246°
WSW
239°
WSW
228°
SW
226°
SW
221°
SW
224°
SW
231°
SW
222°
SW
231°
SW
226°
SW
216°
SW
226°
SW
271°
W
301°
WNW
316°
NW
326°
NW
342°
NNW
12°
NNE
54°
NE
66°
ENE
49°
NE
37°
NE
35°
NE
37°
NE

Daily Forecast

Date High Low Precip. Humidity
Today
Apr 23

Clouds
69 °F
40 °F
0%
34%
Wednesday
Apr 24

Rain
72 °F
51 °F
100%
51%
Thursday
Apr 25

Clouds
72 °F
44 °F
0%
42%
Friday
Apr 26

Rain
60 °F
53 °F
100%
93%
Saturday
Apr 27

Clouds
78 °F
55 °F
0%
49%
Sunday
Apr 28

Clouds
81 °F
57 °F
0%
45%
Monday
Apr 29

Rain
81 °F
60 °F
37%
45%
Tuesday
Apr 30

Rain
80 °F
61 °F
100%
53%
Wednesday
May 1

Clear
78 °F
54 °F
0%
33%
Thursday
May 2

Clouds
81 °F
58 °F
0%
50%
Friday
May 3

Rain
82 °F
63 °F
100%
67%
Saturday
May 4

Rain
77 °F
60 °F
100%
26%
Sunday
May 5

Rain
63 °F
52 °F
100%
60%
Monday
May 6

Clear
72 °F
51 °F
0%
39%
Tuesday
May 7

Clear
75 °F
48 °F
0%
40%
Wednesday
May 8

Clouds
79 °F
52 °F
0%
38%

Temperature 8-14 Day Outlook



Precipitation 8-14 Day Outlook




Quick Links
Fort Loudoun Lake News
Fort Loudoun Lake Photos
Fort Loudoun Lake Videos




About Us
Contact Us
Site Map
Search Site
Advertise With Us
   
www.FortLoudoun.info
THE FORT LOUDOUN LAKE WEBSITE

Copyright 2024, Lakes Online
Privacy    |    Legal